#timestamp,LO_Frequency,Hit,StdDev 
1516885215.6,286047002.7,N
1516885235.4,286047000.4,N
1516885255.3,286047002.8,N
1516885275.1,286047002.1,N
1516885295.9,286047004.4,Y
1516885315.7,286047002.6,P
1516885335.5,286046999.9,N
1516885355.4,286046998.6,N
1516885375.2,286046999.0,N
1516885395.1,286046998.3,N
1516885396.0,286046998.3,N
1516885415.8,286047001.1,N
1516885435.6,286046998.3,N
1516885455.5,286047001.2,N
1516885475.3,286046998.2,N
1516885495.1,286046998.6,N
1516885515.9,286047001.0,N
1516885535.7,286046999.3,N
1516885555.6,286046998.7,N
1516885575.4,286046999.5,N
1516885595.2,286046998.3,N
1516885615.1,286046998.5,N
1516885616.0,286046998.5,N
1516885635.8,286046999.1,N
1516885655.6,286047000.8,N
1516885675.5,286046998.5,N
1516885695.3,286046998.4,N
1516885715.2,286046998.5,N
1516885735.9,286047000.3,N
1516885755.7,286046999.3,N
1516885775.6,286046998.6,N
1516885795.4,286046999.7,N
1516885815.2,286047002.0,N
1516885835.1,286047002.0,N
1516885836.0,286047002.0,N
1516885855.8,286047002.0,N
1516885875.7,286046999.7,N
1516885895.5,286047000.2,N
1516885915.3,286047000.3,N
1516885935.2,286046998.3,N
1516885955.0,286047000.4,N
1516885955.9,286047000.4,N
1516885975.8,286047002.1,N
1516885995.6,286047002.1,N
1516886015.4,286046999.9,N
1516886035.3,286046999.8,N
1516886055.1,286047000.4,N
1516886075.8,286047001.6,N
1516886095.7,286047002.2,N
1516886115.5,286046999.7,N
1516886135.4,286047000.8,N
1516886155.2,286046999.8,N
1516886175.0,286047002.4,N
1516886175.9,286047002.4,N
1516886195.8,286047002.6,N
1516886215.6,286047000.9,N
1516886235.5,286046998.5,N
1516886255.3,286047000.6,N
1516886275.1,286047000.6,N
1516886295.9,286046999.8,N
1516886315.7,286046998.1,N
1516886335.5,286047000.7,N
1516886355.4,286046999.9,N
1516886375.2,286047002.6,N
1516886395.1,286047002.2,N
1516886396.0,286047002.2,N
1516886415.8,286047002.7,N
1516886435.6,286047001.9,N
1516886455.5,286047002.4,N
1516886475.3,286047000.4,N
1516886495.1,286047002.3,N
1516886515.9,286047000.3,N
1516886535.7,286047002.6,N
1516886555.6,286047002.5,N
1516886575.4,286047002.2,N
1516886595.2,286047001.8,N
1516886615.1,286047001.4,N
1516886616.0,286047001.4,N
1516886635.8,286047002.8,N
1516886655.6,286047002.7,N
1516886675.5,286047001.6,N
1516886695.3,286047002.6,N
1516886715.2,286047002.8,N
1516886735.9,286047001.9,N
1516886755.7,286047002.1,N
1516886775.6,286047000.3,N
1516886795.4,286046998.6,N
1516886815.2,286046998.1,N
1516886835.1,286047000.8,N
1516886836.0,286047000.8,N
1516886855.8,286047000.8,N
1516886875.7,286046999.9,N
1516886895.5,286047000.1,N
1516886915.3,286047000.5,N
1516886935.2,286047002.8,N
1516886955.0,286047003.9,Y
1516886955.9,286047003.9,P
1516886975.8,286047001.0,N
1516886995.6,286047000.9,N
1516887015.4,286047000.4,N
1516887035.3,286047000.8,N
1516887055.1,286046996.5,Y
1516887075.9,286046995.7,P
1516887095.7,286046995.7,N
1516887115.5,286046993.3,N
1516887135.4,286046995.4,N
1516887155.2,286046997.5,N
1516887175.0,286046997.4,N
1516887175.9,286046997.4,N
1516887195.8,286046995.2,N
1516887215.6,286046997.2,N
1516887235.5,286046999.6,N
1516887255.3,286046997.1,N
1516887275.2,286046997.5,N
1516887295.9,286046996.7,N
1516887315.7,286046997.3,N
1516887335.6,286046995.1,N
1516887355.4,286046997.8,N
1516887375.2,286046997.9,N
1516887395.1,286046995.1,N
1516887396.0,286046995.1,N
1516887415.8,286046999.5,N
1516887435.7,286046999.6,N
1516887455.5,286046998.3,N
1516887475.3,286046998.4,N
1516887495.2,286047000.8,N
1516887515.0,286046999.0,N
1516887515.9,286046999.0,N
1516887535.8,286046994.9,N
1516887555.6,286046995.2,N
1516887575.4,286046996.3,N
1516887595.3,286046993.7,Y
1516887615.1,286046998.8,P
1516887635.8,286046999.0,N
1516887655.7,286046999.3,N
1516887675.5,286046999.1,N
1516887695.4,286046998.1,N
1516887715.2,286046998.7,N
1516887735.0,286047001.2,N
1516887735.9,286047001.2,N
1516887755.8,286047001.0,N
1516887775.6,286047002.7,N
1516887795.4,286047002.8,N
1516887815.3,286047002.6,N
1516887835.1,286046999.7,N
1516887855.9,286046999.7,N
1516887875.7,286047000.4,N
1516887895.5,286047000.1,N
1516887915.8,286046999.7,N
1516887935.7,286047002.8,N
1516887955.5,286047002.7,N
1516887975.3,286047002.6,N
1516887995.2,286047000.4,N
1516888015.0,286047000.1,N
1516888015.9,286047000.1,N
1516888035.8,286047002.4,N
1516888055.6,286047000.2,N
1516888075.4,286046999.8,N
1516888095.3,286047000.0,N
1516888115.1,286047002.4,N
1516888135.9,286047000.1,N
1516888155.7,286047002.8,N
1516888175.5,286047002.8,N
1516888195.4,286047002.2,N
1516888215.2,286047002.1,N
1516888235.0,286047001.9,N
1516888235.9,286047001.9,N
1516888255.8,286047002.1,N
1516888275.6,286047002.8,N
1516888295.5,286047002.5,N
1516888315.3,286047002.8,N
1516888335.1,286047000.1,N
1516888355.9,286047002.3,N
1516888375.7,286047001.8,N
1516888395.5,286047002.7,N
1516888415.4,286047001.6,N
1516888435.2,286047002.0,N
1516888455.1,286047002.8,N
1516888456.0,286047002.8,N
1516888475.8,286046998.5,N
1516888495.6,286047000.9,N
1516888515.5,286046999.9,N
1516888535.3,286047000.2,N
1516888555.2,286047000.9,N
1516888575.9,286046999.7,N
1516888595.7,286046999.8,N
1516888615.6,286047002.7,N
1516888635.4,286046999.7,N
1516888655.2,286047002.4,N
1516888675.1,286046999.8,N
1516888676.0,286046999.8,N
1516888695.8,286046999.7,N
1516888715.7,286046999.8,N
1516888735.5,286047002.7,N
1516888755.4,286047001.8,N
1516888775.2,286047002.2,N
1516888795.5,286047002.2,N
